GFSSW_250_spd_021.txt.gz
Wind_Speed
25 26 26 26 25 24 22 21 20 19 18 16 15 15 15 14 15 16 16 16 19 21 23 25 25 18 4 14 20 19 20 22 22 22 21 19 19 18 17 16 17 17 19 19 18
32 31 31 31 31 31 30 29 27 23 21 20 19 18 18 16 15 15 18 15 15 18 20 23 25 24 15 7 14 13 15 19 18 18 19 19 18 17 16 16 17 17 20 17 15
34 34 32 32 33 32 32 30 31 30 27 25 22 20 18 20 16 17 16 18 14 15 17 20 24 24 22 9 12 16 19 14 16 16 15 15 15 15 15 13 13 10 9 10 9
37 35 35 35 35 35 35 34 31 30 27 23 21 23 22 21 22 18 18 19 16 12 13 15 19 22 22 17 8 6 8 6 9 10 11 12 10 11 11 8 7 9 9 8 5
43 44 44 43 42 40 39 37 34 33 33 31 25 22 22 23 28 24 24 19 19 15 11 12 13 16 18 17 9 3 1 5 7 9 11 11 12 13 11 11 12 9 3 2 4
48 48 48 48 47 46 45 44 43 41 38 36 34 29 25 25 27 28 27 24 20 18 14 10 9 9 11 14 14 8 1 6 8 11 14 15 14 12 12 13 14 5 0 5 5
50 51 51 51 50 51 50 49 49 46 45 42 42 38 34 30 30 29 29 27 26 23 19 14 10 8 6 7 10 12 6 1 7 14 16 14 13 11 10 8 6 2 3 0 6
55 55 56 56 55 56 56 55 52 50 48 49 47 45 41 39 35 33 29 31 29 29 26 21 16 11 7 3 4 6 11 13 5 3 16 19 16 13 9 8 11 10 6 10 13
45 47 49 50 53 55 58 60 61 60 57 54 51 51 49 45 43 40 36 33 32 32 31 27 22 16 12 8 2 2 2 6 11 8 5 11 15 12 14 16 15 14 17 20 20
36 37 41 43 45 47 48 49 53 58 61 59 58 55 53 50 49 45 44 39 36 32 32 33 29 23 18 14 9 5 4 1 6 7 6 11 16 19 19 19 21 21 20 16 14
32 31 32 35 34 37 40 44 48 50 52 53 57 59 57 56 55 49 49 47 42 38 34 38 32 31 25 19 16 12 8 6 4 8 7 8 13 14 16 20 22 21 16 14 14
35 35 34 34 36 37 34 38 33 37 44 49 51 54 59 61 61 57 53 54 50 45 41 38 39 39 31 27 24 20 16 12 10 8 10 10 9 8 12 18 19 18 19 17 14
38 41 44 42 42 42 43 45 42 35 37 38 40 49 54 57 64 64 61 58 57 53 48 44 47 49 32 31 31 27 25 21 17 13 11 13 12 11 11 16 18 19 17 16 15
45 47 47 45 46 47 48 49 48 47 39 36 38 36 46 54 55 64 66 64 61 61 58 51 52 51 43 36 37 35 32 28 24 18 17 16 15 14 14 16 17 18 16 15 15
55 54 55 49 46 48 49 48 47 50 48 42 39 44 39 46 51 56 63 67 69 68 64 60 57 56 51 48 44 43 42 36 30 27 24 19 18 18 19 20 21 20 18 14 17
63 61 60 60 58 53 54 56 56 52 50 51 48 51 48 48 42 50 57 61 69 72 70 69 66 60 57 57 52 52 49 40 36 34 29 23 23 22 22 21 23 25 24 22 20
69 69 69 71 70 68 62 60 60 55 55 57 57 59 57 52 54 45 52 60 62 70 75 76 72 68 65 64 61 58 51 46 39 36 34 31 30 27 27 24 25 27 27 26 25
74 75 75 74 76 73 71 71 63 59 62 65 64 64 64 65 58 58 53 51 62 63 73 80 76 74 72 67 65 65 60 51 49 45 43 41 35 37 35 31 27 27 29 27 28
80 82 82 82 86 86 82 74 69 73 74 73 72 73 69 68 70 65 66 59 57 62 68 74 81 84 80 75 75 68 69 56 57 54 51 44 45 47 41 35 31 33 34 32 31
87 87 86 86 88 93 91 81 81 85 84 82 80 80 79 75 75 73 69 69 57 56 65 72 79 87 86 86 80 75 72 71 62 57 51 52 52 47 45 38 38 40 39 38 37
94 92 91 92 94 97 95 92 94 93 92 90 88 89 90 88 82 78 76 75 75 64 61 67 77 81 93 85 82 81 76 78 72 65 59 58 54 54 53 44 40 47 45 44 42
99 100 102 104 104 105 104 104 105 103 104 101 99 93 92 97 93 86 80 81 82 77 64 64 75 75 80 92 91 89 86 87 83 72 65 61 57 62 63 52 47 50 49 49 48
111 114 116 111 113 117 114 112 112 113 111 113 109 103 100 102 98 92 86 86 88 82 79 68 65 73 77 85 94 92 88 86 84 82 73 69 60 66 65 63 54 50 52 53 50
122 121 128 127 127 129 130 125 125 126 126 120 117 115 112 111 105 96 96 90 93 86 82 77 71 69 71 76 86 99 98 95 93 90 81 74 74 74 68 70 65 59 59 59 56
138 138 144 141 141 142 143 141 141 137 136 132 125 123 116 111 111 104 96 94 92 89 84 83 76 67 69 77 84 86 98 101 99 92 92 82 82 77 72 71 73 70 63 63 61
145 145 141 139 146 145 142 143 144 142 142 133 134 133 129 118 108 99 96 96 92 92 88 86 82 81 67 66 77 81 85 98 103 97 95 92 85 81 80 78 73 77 74 70 65
125 127 124 129 129 127 128 124 129 129 131 130 130 132 128 127 120 111 104 96 91 94 92 87 84 81 68 66 67 81 71 80 96 102 100 99 86 90 86 80 74 77 82 78 73

GFSSW_250_spd_024.txt.gz
Wind_Speed
24 24 24 25 26 25 23 23 24 24 24 20 19 20 20 19 19 19 17 16 18 19 22 22 22 12 5 17 24 21 13 22 28 28 26 23 23 22 21 22 21 20 21 18 20
30 31 31 32 32 31 30 29 28 27 26 25 23 21 21 19 18 19 18 17 16 16 18 20 22 21 7 12 15 15 23 24 21 25 27 23 22 21 21 21 20 20 20 22 21
34 34 34 34 33 32 30 29 29 28 27 26 24 22 21 21 21 20 19 20 18 15 15 18 19 21 19 5 18 21 2 21 24 19 19 20 21 22 22 21 19 19 20 19 19
37 37 37 37 37 35 34 33 32 31 28 26 24 22 20 20 27 20 22 21 21 17 13 13 16 16 18 15 19 22 10 14 13 18 18 18 17 19 19 17 14 13 13 12 12
43 43 43 43 42 42 40 39 38 36 34 31 28 25 24 22 23 21 21 23 21 20 16 10 10 14 14 14 9 15 14 10 6 8 11 11 14 12 9 9 10 10 6 3 5
46 46 45 44 47 47 46 44 42 42 41 39 37 33 31 28 28 26 22 23 23 21 19 15 9 7 10 12 11 5 1 4 4 7 7 10 12 11 9 8 12 13 8 6 6
48 48 49 49 51 50 50 49 46 43 44 42 41 40 40 35 33 33 30 24 24 24 22 19 14 8 4 5 7 10 6 3 5 9 9 11 10 9 9 13 17 15 8 5 7
50 50 51 51 51 50 49 51 53 50 47 46 46 45 42 43 39 40 37 35 27 27 26 23 20 14 10 5 2 2 6 9 3 4 12 14 11 11 12 13 16 18 11 11 13
41 38 37 39 39 41 43 45 46 47 48 49 51 50 47 46 45 44 41 40 38 30 29 28 24 21 15 12 7 4 1 4 6 5 2 10 6 13 17 14 16 16 15 16 19
34 33 33 32 33 32 34 33 36 40 41 40 43 46 54 52 51 47 48 45 44 40 32 30 30 24 23 20 12 9 6 3 2 4 7 11 6 7 10 16 18 17 19 21 19
33 34 34 36 33 30 28 26 28 27 27 29 31 39 42 48 55 53 52 49 48 45 41 37 32 30 29 23 17 16 13 9 6 5 9 11 18 9 14 15 17 19 20 17 17
39 38 39 39 39 38 35 35 34 32 34 27 29 24 30 39 46 49 54 54 52 50 47 42 33 41 35 29 25 23 19 15 11 9 11 15 16 11 10 10 16 16 14 16 17
43 44 45 43 44 46 43 41 39 35 33 38 28 37 29 32 36 43 46 54 56 54 53 48 45 45 39 31 29 29 27 23 18 14 12 16 15 10 10 13 14 14 15 16 17
48 49 51 51 51 53 49 49 46 43 38 36 34 33 40 33 34 34 39 44 52 60 56 53 52 49 46 38 35 33 35 32 25 20 18 18 15 15 15 15 17 17 15 14 16
50 52 56 57 56 58 54 57 56 52 46 43 40 42 41 39 37 36 32 35 43 51 60 60 58 56 52 47 44 41 42 38 34 29 27 22 20 21 18 18 19 20 18 15 15
58 57 59 61 65 61 61 63 62 61 50 55 51 47 48 47 41 36 38 37 35 41 47 64 63 59 59 56 51 51 46 46 40 36 32 29 25 23 22 23 24 24 24 22 20
64 65 66 69 70 68 68 67 65 56 58 61 62 57 55 53 48 46 43 37 40 37 40 50 63 65 64 61 60 58 54 48 44 38 33 35 29 28 28 26 27 27 29 29 27
68 70 72 71 75 74 76 74 67 60 65 70 69 65 63 61 57 56 51 46 43 44 43 42 48 62 71 68 68 65 63 56 51 48 46 42 36 35 33 32 28 28 31 33 31
79 78 78 77 78 83 82 78 71 71 75 76 77 73 71 68 68 64 61 57 52 50 50 45 43 51 63 73 74 69 71 61 59 56 54 46 45 44 43 39 35 35 33 34 35
85 84 88 87 88 91 88 78 80 83 82 88 82 80 76 76 74 74 68 64 64 58 55 53 51 46 51 69 75 75 73 72 68 62 53 53 52 47 50 46 47 40 37 40 38
92 92 98 94 97 97 92 86 88 86 89 92 89 84 80 83 85 81 77 75 72 67 64 59 59 55 54 46 61 80 80 76 77 72 64 60 54 54 55 53 50 45 41 43 46
103 102 110 106 106 105 101 96 95 94 97 97 95 93 90 88 88 90 87 85 79 75 72 68 69 63 58 52 58 67 81 83 83 77 72 66 58 60 61 62 58 53 47 46 54
116 116 121 122 117 117 116 111 108 105 104 106 106 102 99 98 99 92 89 87 87 88 83 79 72 70 67 57 47 55 63 83 87 84 84 78 62 67 72 66 68 61 56 52 56
127 126 129 132 128 128 131 125 127 125 122 119 119 115 110 107 106 99 97 95 95 93 92 86 79 71 65 67 71 64 66 73 83 90 83 83 73 74 77 71 77 68 62 58 55
138 139 141 139 142 142 140 134 135 134 138 133 130 124 124 115 112 109 105 102 104 103 100 97 86 81 75 72 77 73 67 68 74 86 91 82 85 79 83 78 77 77 68 65 63
148 145 147 141 141 145 143 138 140 144 143 137 139 135 132 125 126 118 115 112 109 108 106 99 92 88 83 78 80 77 74 64 62 71 86 85 90 87 86 85 83 81 78 73 70
106 103 97 97 95 97 101 104 113 113 117 128 132 133 137 136 129 123 123 118 112 113 110 103 98 95 87 81 83 85 54 61 63 64 74 87 86 94 94 93 90 86 83 75 77

GFSSW_250_spd_030.txt.gz
Wind_Speed
25 23 21 21 21 21 21 22 23 21 18 18 18 16 14 13 15 16 17 17 13 11 10 12 11 8 21 34 39 39 34 31 35 31 39 40 36 35 34 33 28 30 28 29 27
26 26 26 26 27 27 27 26 25 22 20 19 17 17 17 14 12 13 16 17 16 10 10 10 11 12 3 30 39 40 42 41 41 30 29 27 24 30 32 29 26 26 25 23 20
31 31 31 31 31 31 32 30 28 27 25 24 22 21 22 21 11 16 13 16 17 14 8 9 10 10 8 18 30 37 40 43 45 35 25 22 21 24 24 23 22 21 19 19 21
35 35 35 35 34 35 35 35 33 32 30 28 28 28 27 25 18 20 17 16 17 16 11 7 7 9 6 17 19 30 31 27 29 28 29 27 24 22 20 18 18 21 21 19 17
39 39 38 37 37 37 38 38 38 39 38 36 34 31 30 31 28 24 23 21 20 18 16 8 5 7 7 3 4 13 15 20 26 27 25 22 24 20 16 16 16 17 16 13 10
42 42 42 42 41 41 42 42 40 39 39 39 36 37 38 37 35 33 31 26 25 22 21 16 8 7 10 4 3 7 10 11 20 22 20 16 13 18 16 15 13 10 9 7 5
45 46 45 43 43 43 44 45 45 44 43 43 42 41 43 41 38 38 37 35 33 28 25 22 17 11 13 11 9 7 3 3 10 13 16 15 18 17 10 11 11 12 10 5 6
48 50 49 50 50 50 49 46 45 43 43 44 43 41 43 42 45 42 40 40 36 35 32 28 26 20 16 16 14 14 10 6 5 4 13 14 18 15 13 12 9 9 11 11 9
52 52 52 50 49 48 45 41 36 33 26 26 28 29 33 36 39 43 46 44 41 39 36 34 30 29 23 20 21 16 15 11 7 5 12 12 15 10 10 10 10 10 11 13 14
54 53 51 47 45 41 36 34 30 28 25 25 21 23 23 28 31 36 39 44 46 44 42 38 36 34 29 28 22 19 20 15 12 6 9 10 16 12 12 15 15 13 11 12 13
53 49 45 42 39 36 31 29 30 28 25 22 21 19 16 15 21 26 30 36 43 48 44 42 39 38 37 34 24 23 23 21 13 12 5 12 6 5 9 11 12 11 9 14 17
50 47 45 42 42 39 36 37 34 29 28 26 23 23 20 21 17 17 19 21 32 40 47 45 46 44 40 37 31 27 27 27 20 13 10 6 16 9 2 6 8 11 15 19 23
52 49 50 48 46 44 40 39 36 33 33 35 27 29 22 24 22 20 14 17 19 28 37 45 52 46 43 41 38 33 34 32 26 18 13 10 17 8 4 5 9 14 17 17 16
54 52 52 53 50 48 44 47 41 36 32 40 30 31 34 30 32 26 23 20 17 11 17 36 44 50 49 45 43 39 44 35 31 25 20 15 11 19 11 9 12 17 14 13 16
59 57 57 57 58 54 54 53 51 45 36 39 38 36 39 38 41 36 28 27 26 21 20 23 33 44 51 53 47 55 43 39 35 30 24 15 16 18 15 16 18 20 16 15 18
66 64 65 63 64 64 60 59 57 53 39 44 44 46 46 44 42 38 35 32 29 26 27 30 21 29 44 53 53 60 48 45 41 35 25 25 20 17 21 18 18 20 17 19 20
73 71 69 72 69 67 64 63 63 55 52 55 52 51 51 51 50 46 41 37 37 31 33 32 28 22 29 45 57 61 56 50 46 37 33 38 28 29 25 24 24 24 23 22 23
75 78 79 78 76 72 73 71 65 60 64 64 61 57 57 60 57 52 47 40 41 42 43 37 34 37 34 26 40 56 59 56 51 46 46 44 33 39 34 29 28 25 26 28 28
79 81 84 86 82 82 83 78 75 75 73 73 70 69 67 66 65 63 53 49 46 46 45 44 40 46 37 35 29 39 51 63 57 55 51 44 40 43 39 34 33 32 31 32 34
84 84 90 91 89 88 88 84 82 82 82 80 80 80 75 72 69 67 61 55 55 55 53 49 48 49 43 40 31 29 36 51 57 59 55 53 50 45 47 44 41 37 36 41 38
94 92 99 97 95 94 92 92 91 94 90 88 87 85 85 83 74 71 65 64 67 63 65 59 56 56 47 33 41 41 40 34 44 57 61 57 49 53 55 53 47 47 44 41 37
101 100 106 101 103 99 97 98 99 99 103 98 94 91 89 90 83 78 72 73 74 73 73 67 62 57 48 44 44 37 39 39 32 34 50 63 56 65 63 58 56 52 49 48 44
103 107 109 109 110 109 107 104 104 105 107 110 102 96 92 92 89 86 79 81 81 79 76 75 68 62 57 50 44 38 45 46 43 35 34 44 63 69 68 66 62 59 57 54 50
104 110 115 118 116 116 115 114 112 114 114 113 111 107 101 100 100 96 90 86 86 85 82 81 77 70 61 58 61 54 53 49 44 33 39 29 47 65 75 73 71 68 65 64 61
114 115 116 120 121 120 121 122 122 122 122 119 119 118 113 109 107 106 102 95 94 94 90 88 80 79 69 69 70 64 59 55 50 44 34 39 39 45 63 76 77 73 73 67 65
117 119 121 126 130 128 128 128 129 130 130 128 127 125 122 118 117 114 109 106 103 104 102 95 84 86 78 75 76 74 69 58 54 50 43 40 44 43 49 52 64 75 77 74 73
88 91 95 107 119 124 130 132 137 138 136 137 135 132 129 127 123 119 118 114 109 109 111 107 98 92 84 87 85 92 65 63 60 58 54 53 52 55 50 53 48 49 64 78 80

GFSSW_250_spd_033.txt.gz
Wind_Speed
25 24 23 22 21 20 20 21 22 21 22 20 18 18 15 15 16 16 14 12 8 6 4 4 4 3 17 30 36 37 35 31 37 38 40 42 40 40 35 37 37 36 34 30 31
27 26 26 26 26 26 26 26 26 26 24 23 22 22 20 15 18 18 17 11 11 8 7 7 6 8 7 26 37 40 41 28 27 35 42 42 40 35 37 42 42 34 30 27 26
29 29 30 31 31 31 31 30 29 29 28 27 27 26 27 23 20 21 20 18 14 12 8 9 8 7 9 9 34 40 41 41 37 40 37 43 40 33 31 30 29 28 24 21 19
35 35 35 35 35 35 35 35 35 34 33 32 32 30 28 31 27 26 24 22 20 17 14 10 10 9 6 4 16 33 37 37 39 35 34 38 39 31 32 30 26 19 18 17 19
40 40 40 40 40 40 40 38 38 38 37 37 36 33 33 33 35 30 30 28 25 23 21 15 12 10 8 3 6 17 22 26 32 34 35 36 32 27 28 27 21 16 16 14 12
45 45 44 42 41 41 42 42 42 42 40 39 38 37 37 37 36 38 33 33 32 28 26 22 18 15 10 10 8 9 13 22 27 21 26 29 25 20 22 19 17 15 10 9 3
47 46 45 44 44 44 44 44 44 45 44 43 42 44 43 42 41 42 41 38 39 36 33 27 26 20 15 12 15 11 6 6 6 12 18 21 21 15 14 14 15 15 10 10 7
49 48 48 48 47 47 47 48 49 50 50 48 48 48 47 47 47 48 48 46 41 40 39 34 33 27 24 17 20 19 13 11 8 10 13 17 20 14 15 16 14 14 11 10 8
54 55 54 53 53 52 49 50 50 47 47 46 44 44 40 40 43 44 46 47 47 45 41 38 36 35 28 25 24 20 16 15 10 13 13 16 15 12 16 15 16 13 9 11 10
60 60 58 58 57 56 52 51 47 44 43 41 37 33 32 34 35 35 37 38 42 48 46 42 40 39 35 31 30 19 20 21 12 15 13 15 11 11 12 19 17 15 10 12 11
62 62 62 60 61 58 52 46 42 42 39 37 36 32 28 27 27 30 30 29 30 39 45 48 44 45 42 38 32 25 24 25 17 17 13 10 12 8 10 18 16 14 12 13 10
65 66 65 62 61 58 54 45 43 40 41 39 38 36 31 30 30 24 24 25 22 27 38 45 53 48 43 40 38 31 28 29 25 20 14 9 19 12 9 6 11 12 14 10 14
69 68 67 66 61 59 55 50 44 44 41 44 43 39 33 29 37 31 30 23 21 20 25 37 43 50 47 45 43 39 37 34 30 24 20 13 14 17 6 2 5 8 10 13 18
72 72 68 68 64 62 57 55 50 47 43 47 43 43 39 36 37 35 34 25 25 20 18 23 27 41 48 49 48 44 49 37 31 28 26 17 12 18 12 6 8 12 16 18 18
73 72 72 69 70 65 62 59 57 54 50 48 48 43 44 43 41 45 37 30 29 23 17 24 18 21 39 51 51 55 46 42 36 30 26 21 18 13 14 14 12 17 19 15 16
74 74 74 74 74 68 65 64 60 59 51 53 52 49 49 48 47 48 41 36 35 28 29 31 24 20 23 34 48 60 50 46 41 35 25 29 26 21 21 18 17 19 20 17 16
79 77 78 78 77 74 75 71 69 63 59 61 58 61 58 57 53 50 44 40 39 37 38 34 28 24 23 24 33 48 54 50 43 38 35 40 32 31 24 23 21 23 22 19 19
84 85 86 80 80 79 81 80 73 67 67 65 66 66 65 62 61 55 50 43 42 41 44 38 35 36 35 33 29 28 37 44 49 46 47 44 32 41 35 28 28 24 26 26 25
87 91 91 85 85 84 84 83 80 79 75 72 71 71 68 69 67 63 57 53 53 51 50 45 40 41 36 36 27 32 20 32 43 49 47 42 42 40 36 33 31 30 30 32 31
87 91 93 91 89 89 90 87 85 84 84 82 81 77 73 72 73 71 67 63 59 57 56 50 47 46 42 36 25 25 33 26 22 40 50 49 45 48 43 42 40 36 33 35 32
86 90 93 93 94 96 94 94 92 92 91 92 89 87 83 79 78 79 77 70 66 66 63 60 54 53 50 37 36 35 32 30 26 18 35 49 49 56 51 50 46 42 38 40 38
89 90 91 96 97 98 96 97 98 101 98 96 95 94 92 89 85 83 85 82 75 71 69 66 62 54 53 48 45 38 33 27 15 21 24 31 48 63 61 56 51 49 47 46 43
95 94 94 96 103 102 101 101 101 101 105 101 98 97 96 94 93 90 87 87 82 78 75 70 65 62 61 59 52 43 37 31 29 26 20 22 32 45 60 61 57 53 52 52 48
102 100 99 100 102 104 104 103 103 104 108 108 107 104 102 100 99 97 92 91 88 85 80 76 71 68 64 64 62 55 50 45 39 26 26 24 33 45 43 52 63 63 61 60 57
105 107 106 106 104 107 109 107 110 110 110 110 110 110 109 107 105 103 99 96 94 90 86 83 76 74 71 67 67 63 56 51 40 32 26 33 39 43 48 41 42 60 66 63 62
90 92 95 104 107 110 110 112 114 113 111 113 116 112 111 113 110 108 105 103 99 97 94 88 83 81 76 74 74 71 64 54 46 46 40 37 31 40 47 47 43 41 51 61 66
68 74 79 82 89 97 108 113 116 117 119 120 116 115 116 114 116 114 113 110 106 103 100 94 91 88 82 82 81 78 53 59 57 54 48 44 43 47 49 50 47 43 42 47 52